Location: Marcé
(47.5801°N, 0.3280°W)
Time: 00:02:38
(UTC+01:00)

Transit 2A - Pass Details

Date: 01 December 2021
Orbit: 591 x 967 km, 66.7° (Epoch: 16 January)

Event Time Altitude Azimuth Distance (km) Brightness Sun altitude
Rises 08:18:07 0° 325° (NW) 3,629 8.9 -2.3°
Reaches altitude 10° 08:21:13 10° 339° (NNW) 2,705 8.4 -1.9°
Maximum altitude 08:26:18 24° 32° (NNE) 1,878 8.1 -1.2°
Drops below altitude 10° 08:31:22 10° 85° (E) 2,685 9.7 -0.4°
Sets 08:34:25 0° 99° (E) 3,597 10.9 0.0°
